TimeCST,TemperatureF,Dew PointF,Humidity,Sea Level PressureIn,VisibilityMPH,Wind Direction,Wind SpeedMPH,Gust SpeedMPH,PrecipitationIn,Events,Conditions,WindDirDegrees,DateUTC
12:15 AM,42.8,26.6,53,30.04,10.0,West,6.9,-,N/A,,Clear,270,2014-02-21 06:15:00
12:35 AM,41.0,26.6,57,30.05,10.0,West,6.9,-,N/A,,Clear,280,2014-02-21 06:35:00
12:55 AM,39.2,24.8,56,30.05,10.0,West,8.1,-,N/A,,Clear,280,2014-02-21 06:55:00
1:15 AM,41.0,23.0,49,30.04,10.0,WNW,8.1,-,N/A,,Clear,300,2014-02-21 07:15:00
1:35 AM,42.8,21.2,42,30.03,10.0,WNW,8.1,-,N/A,,Clear,290,2014-02-21 07:35:00
1:55 AM,44.6,17.6,34,30.03,10.0,WNW,8.1,-,N/A,,Clear,290,2014-02-21 07:55:00
2:15 AM,46.4,12.2,25,30.03,10.0,WNW,10.4,17.3,N/A,,Clear,300,2014-02-21 08:15:00
2:35 AM,46.4,12.2,25,30.04,10.0,WNW,8.1,-,N/A,,Clear,290,2014-02-21 08:35:00
2:55 AM,46.4,12.2,25,30.03,10.0,West,5.8,-,N/A,,Clear,260,2014-02-21 08:55:00
3:15 AM,44.6,14.0,29,30.04,10.0,South,4.6,-,N/A,,Clear,170,2014-02-21 09:15:00
3:35 AM,41.0,15.8,36,30.05,10.0,Calm,Calm,-,N/A,,Clear,0,2014-02-21 09:35:00
3:55 AM,33.8,19.4,56,30.05,10.0,Calm,Calm,-,N/A,,Clear,0,2014-02-21 09:55:00
4:15 AM,32.0,19.4,60,30.06,10.0,Calm,Calm,-,N/A,,Clear,0,2014-02-21 10:15:00
4:35 AM,32.0,21.2,64,30.06,10.0,Calm,Calm,-,N/A,,Clear,0,2014-02-21 10:35:00
4:55 AM,32.0,23.0,69,30.06,10.0,Calm,Calm,-,N/A,,Clear,0,2014-02-21 10:55:00
5:15 AM,33.8,19.4,56,30.07,10.0,Calm,Calm,-,N/A,,Clear,0,2014-02-21 11:15:00
5:35 AM,33.8,19.4,56,30.08,10.0,Calm,Calm,-,N/A,,Clear,0,2014-02-21 11:35:00
5:55 AM,28.4,21.2,74,30.08,10.0,WSW,3.5,-,N/A,,Clear,240,2014-02-21 11:55:00
6:15 AM,26.6,21.2,80,30.08,10.0,Calm,Calm,-,N/A,,Clear,0,2014-02-21 12:15:00
6:35 AM,28.4,21.2,74,30.09,10.0,SW,3.5,-,N/A,,Clear,230,2014-02-21 12:35:00
6:55 AM,28.4,21.2,74,30.09,10.0,Calm,Calm,-,N/A,,Clear,0,2014-02-21 12:55:00
7:15 AM,28.4,21.2,74,30.09,10.0,Calm,Calm,-,N/A,,Clear,0,2014-02-21 13:15:00
7:35 AM,32.0,23.0,69,30.10,10.0,Calm,Calm,-,N/A,,Clear,0,2014-02-21 13:35:00
7:55 AM,33.8,26.6,75,30.11,10.0,Calm,Calm,-,N/A,,Clear,0,2014-02-21 13:55:00
8:15 AM,39.2,28.4,65,30.12,10.0,Calm,Calm,-,N/A,,Clear,0,2014-02-21 14:15:00
8:35 AM,44.6,23.0,43,30.12,10.0,Calm,Calm,-,N/A,,Clear,0,2014-02-21 14:35:00
8:55 AM,46.4,19.4,34,30.13,10.0,WNW,3.5,-,N/A,,Clear,290,2014-02-21 14:55:00
9:15 AM,50.0,17.6,28,30.12,10.0,WNW,3.5,-,N/A,,Clear,300,2014-02-21 15:15:00
9:35 AM,51.8,15.8,24,30.12,10.0,West,3.5,-,N/A,,Clear,280,2014-02-21 15:35:00
9:55 AM,51.8,15.8,24,30.12,10.0,West,3.5,-,N/A,,Clear,260,2014-02-21 15:55:00
10:15 AM,53.6,12.2,19,30.11,10.0,Calm,Calm,-,N/A,,Clear,0,2014-02-21 16:15:00
10:35 AM,55.4,12.2,18,30.11,10.0,WSW,5.8,-,N/A,,Clear,240,2014-02-21 16:35:00
10:55 AM,55.4,8.6,15,30.12,10.0,Calm,Calm,-,N/A,,Clear,0,2014-02-21 16:55:00
11:15 AM,57.2,5.0,12,30.11,10.0,West,5.8,-,N/A,,Clear,260,2014-02-21 17:15:00
11:35 AM,59.0,1.4,10,30.10,10.0,WSW,4.6,-,N/A,,Clear,250,2014-02-21 17:35:00
11:55 AM,59.0,-0.4,9,30.09,10.0,WNW,4.6,-,N/A,,Clear,290,2014-02-21 17:55:00
12:15 PM,60.8,3.2,10,30.09,10.0,WSW,5.8,-,N/A,,Clear,240,2014-02-21 18:15:00
12:35 PM,60.8,3.2,10,30.08,10.0,SSW,6.9,-,N/A,,Clear,210,2014-02-21 18:35:00
12:55 PM,62.6,5.0,10,30.06,10.0,West,10.4,-,N/A,,Clear,270,2014-02-21 18:55:00
1:15 PM,62.6,6.8,11,30.05,10.0,SSE,3.5,-,N/A,,Clear,160,2014-02-21 19:15:00
1:35 PM,62.6,10.4,13,30.04,10.0,South,5.8,-,N/A,,Clear,190,2014-02-21 19:35:00
1:55 PM,62.6,8.6,12,30.03,10.0,South,4.6,-,N/A,,Clear,170,2014-02-21 19:55:00
2:15 PM,62.6,8.6,12,30.03,10.0,South,3.5,-,N/A,,Clear,180,2014-02-21 20:15:00
2:35 PM,62.6,8.6,12,30.02,10.0,South,5.8,-,N/A,,Clear,170,2014-02-21 20:35:00
2:55 PM,62.6,5.0,10,30.02,10.0,West,6.9,-,N/A,,Clear,260,2014-02-21 20:55:00
3:15 PM,62.6,5.0,10,30.01,10.0,WSW,3.5,-,N/A,,Clear,240,2014-02-21 21:15:00
3:35 PM,64.4,3.2,9,30.01,10.0,WSW,8.1,-,N/A,,Clear,240,2014-02-21 21:35:00
3:55 PM,62.6,5.0,10,30.01,10.0,WSW,9.2,-,N/A,,Clear,250,2014-02-21 21:55:00
4:15 PM,64.4,6.8,10,30.01,10.0,South,5.8,-,N/A,,Clear,180,2014-02-21 22:15:00
4:35 PM,62.6,6.8,11,30.01,10.0,SSW,5.8,-,N/A,,Clear,210,2014-02-21 22:35:00
4:55 PM,62.6,6.8,11,30.01,10.0,SSW,5.8,-,N/A,,Clear,210,2014-02-21 22:55:00
5:15 PM,60.8,5.0,11,30.01,10.0,SSW,3.5,-,N/A,,Clear,210,2014-02-21 23:15:00
5:35 PM,59.0,8.6,14,30.01,10.0,South,4.6,-,N/A,,Clear,190,2014-02-21 23:35:00
5:55 PM,59.0,8.6,14,30.02,10.0,Calm,Calm,-,N/A,,Clear,0,2014-02-21 23:55:00
6:15 PM,57.2,8.6,14,30.02,10.0,Calm,Calm,-,N/A,,Clear,0,2014-02-22 00:15:00
6:35 PM,55.4,8.6,15,30.03,10.0,Calm,Calm,-,N/A,,Clear,0,2014-02-22 00:35:00
6:55 PM,53.6,12.2,19,30.04,10.0,Calm,Calm,-,N/A,,Clear,0,2014-02-22 00:55:00
7:15 PM,51.8,12.2,21,30.04,10.0,Calm,Calm,-,N/A,,Clear,0,2014-02-22 01:15:00
7:35 PM,53.6,12.2,19,30.04,10.0,Calm,Calm,-,N/A,,Clear,0,2014-02-22 01:35:00
7:55 PM,51.8,15.8,24,30.05,10.0,South,3.5,-,N/A,,Clear,180,2014-02-22 01:55:00
8:15 PM,46.4,19.4,34,30.05,10.0,Calm,Calm,-,N/A,,Clear,0,2014-02-22 02:15:00
8:35 PM,46.4,17.6,32,30.05,10.0,Calm,Calm,-,N/A,,Clear,0,2014-02-22 02:35:00
8:55 PM,42.8,21.2,42,30.05,10.0,Calm,Calm,-,N/A,,Clear,0,2014-02-22 02:55:00
9:15 PM,46.4,17.6,32,30.05,10.0,Calm,Calm,-,N/A,,Clear,0,2014-02-22 03:15:00
9:35 PM,42.8,19.4,39,30.06,10.0,Calm,Calm,-,N/A,,Clear,0,2014-02-22 03:35:00
9:55 PM,42.8,21.2,42,30.06,10.0,Calm,Calm,-,N/A,,Clear,0,2014-02-22 03:55:00
10:15 PM,41.0,21.2,45,30.06,10.0,Calm,Calm,-,N/A,,Clear,0,2014-02-22 04:15:00
10:35 PM,44.6,19.4,37,30.06,10.0,Calm,Calm,-,N/A,,Clear,0,2014-02-22 04:35:00
10:55 PM,44.6,17.6,34,30.06,10.0,Calm,Calm,-,N/A,,Clear,0,2014-02-22 04:55:00
11:15 PM,41.0,21.2,45,30.06,10.0,Calm,Calm,-,N/A,,Clear,0,2014-02-22 05:15:00
11:35 PM,50.0,15.8,26,30.06,10.0,Calm,Calm,-,N/A,,Clear,0,2014-02-22 05:35:00
11:55 PM,44.6,21.2,39,30.06,10.0,Calm,Calm,-,N/A,,Clear,0,2014-02-22 05:55:00